This is the latest recevied weather packets stored in our database for station/object KB0BS-13. If no packets are shown the sender has not sent any weather packets the latest 10 day(s).
| Time | Temp. | Humidity | Pressure | Rain* | Wind** | Luminosity | Snow |
|---|---|---|---|---|---|---|---|
| 1778033089 | 1.67° C | 81% | 1011 hPa | 0 mm | - | 0 W/m² | - |
| 1778032785 | 1.67° C | 80% | 1010.7 hPa | 0 mm | - | 0 W/m² | - |
| 1778032483 | 2.22° C | 80% | 1010.9 hPa | 0 mm | - | 0 W/m² | - |
| 1778032180 | 1.67° C | 86% | 1010.7 hPa | 0 mm | - | 0 W/m² | - |
| 1778031877 | 1.67° C | 87% | 1010.9 hPa | 0 mm | - | 0 W/m² | - |
| 1778031573 | 1.67° C | 86% | 1010.8 hPa | 0 mm | - | 0 W/m² | - |
| 1778031272 | 1.67° C | 87% | 1010.8 hPa | 0 mm | - | 0 W/m² | - |
| 1778030968 | 1.67° C | 87% | 1010.6 hPa | 0 mm | - | 0 W/m² | - |
| 1778030664 | 1.67° C | 86% | 1010.7 hPa | 0 mm | - | 0 W/m² | - |
| 1778030361 | 2.22° C | 86% | 1010.5 hPa | 0 mm | - | 0 W/m² | - |
| 1778030059 | 2.22° C | 85% | 1010.6 hPa | 0 mm | - | 0 W/m² | - |
| 1778029755 | 2.22° C | 86% | 1010.5 hPa | 0 mm | - | 0 W/m² | - |
| 1778029454 | 2.22° C | 84% | 1010.5 hPa | 0 mm | - | 0 W/m² | - |
| 1778029150 | 2.22° C | 84% | 1010.6 hPa | 0 mm | - | 1 W/m² | - |
| 1778028848 | 2.22° C | 85% | 1010.4 hPa | 0 mm | - | 1 W/m² | - |
| 1778028543 | 2.22° C | 85% | 1010.3 hPa | 0 mm | - | 2 W/m² | - |
| 1778028241 | 2.22° C | 85% | 1010.3 hPa | 0 mm | - | 3 W/m² | - |
| 1778027937 | 2.22° C | 83% | 1010.3 hPa | 0 mm | - | 4 W/m² | - |
| 1778027633 | 2.22° C | 85% | 1010.1 hPa | 0 mm | - | 5 W/m² | - |
| 1778027330 | 2.78° C | 86% | 1010.2 hPa | 0 mm | - | 7 W/m² | - |
| 1778027026 | 2.78° C | 86% | 1009.9 hPa | 0 mm | - | 10 W/m² | - |
| 1778026721 | 2.78° C | 85% | 1010 hPa | 0 mm | - | 13 W/m² | - |
| 1778026419 | 2.78° C | 85% | 1010 hPa | 0 mm | - | 18 W/m² | - |
| 1778026116 | 2.78° C | 86% | 1009.9 hPa | 0 mm | - | 20 W/m² | - |
| 1778025814 | 2.78° C | 87% | 1010 hPa | 0 mm | - | 26 W/m² | - |
* Rain latest hour (hover to see other rain measurements)
** Current wind speed in m/s (hover to see current wind gust speed)